SCP
0 -0 0 -0 0 -0 0 0 0 -0 0 0 -0 0 0 -0 -0 0 0 0 0 0 0 0 0 1 0 0 0 0 0 -0 -0 0 0 1 0 0 0 0 0 0 0 0
0 0 0 0 -0 -0 0 0 0 0 0 -0 0 0 0 -0 0 0 0 0 0 0 0 0 0 0 1 0 0 0 0 -0 -0 0 0 0 -0 0 0 0 0 0 0 0
0 0 0 0 0 0 -0 0 0 0 0 0 0 0 0 0 0 0 0 0 0 0 0 0 0 0 0 0 0 0 0 0 0 0 0 -0 -0 0 0 0 1 0 1 1
0 0 0 0 0 0 0 0 0 0 0 0 0 0 0 0 0 0 1 1 1 0 0 0 0 0 0 0 0 0 0 0 0 0 0 0 -0 -0 0 0 0 0 1 1
0 0 0 0 -0 0 0 0 0 0 0 0 0 0 0 0 0 1 0 0 1 1 0 0 0 1 1 0 0 1 0 0 0 0 0 0 0 0 0 0 0 0 1 1
-0 0 0 0 0 0 0 0 0 0 0 0 0 0 0 0 0 0 0 0 0 0 0 0 0 0 0 0 0 0 0 0 0 0 0 0 0 0 1 1 1 1 1 0
0 0 0 0 0 0 0 0 0 0 0 0 0 0 0 0 0 0 0 0 0 0 0 0 0 0 0 0 0 0 0 0 0 0 0 0 0 1 1 1 1 1 1 1
0 0 0 0 0 0 0 0 0 0 0 0 0 0 0 0 0 0 0 0 0 0 0 0 0 0 0 0 0 0 0 0 0 0 0 0 0 1 1 1 1 1 1 1
0 0 0 0 0 0 0 0 0 0 0 0 0 0 0 0 0 0 0 0 0 0 0 0 0 0 0 0 0 0 0 0 0 0 0 0 0 0 0 0 0 0 0 0
0 0 0 0 -0 0 0 0 0 0 0 0 0 0 0 0 0 0 0 0 0 0 0 0 0 1 0 0 0 0 0 0 0 0 0 0 0 0 0 0 0 0 0 0
0 0 0 0 0 0 0 0 0 0 0 0 0 0 0 0 0 0 0 0 0 0 0 0 0 0 0 0 0 0 0 0 0 0 0 0 0 0 0 0 0 0 0 0
0 1 0 0 0 0 0 0 0 0 0 0 0 0 0 0 0 0 0 0 0 0 0 0 0 0 0 0 0 0 0 0 0 0 0 0 0 0 0 0 0 0 0 0
0 1 0 0 0 0 0 0 0 0 0 0 0 0 0 0 0 0 0 0 0 0 0 0 0 0 0 0 0 0 0 0 0 0 0 0 0 0 0 0 0 0 0 0
0 0 0 0 0 0 0 0 0 0 0 0 0 0 0 0 0 0 0 0 0 0 0 0 0 0 0 0 0 0 0 0 0 0 0 0 0 0 0 0 0 0 0 0
0 0 0 0 0 0 -0 0 0 0 0 0 0 0 0 0 0 0 0 0 0 0 0 0 0 0 0 0 0 0 0 0 0 0 0 0 0 0 0 0 0 0 0 0
0 0 0 0 0 0 0 0 0 0 0 0 0 0 0 0 0 0 0 0 0 0 0 0 0 0 0 0 0 0 0 0 0 0 0 0 0 0 0 0 0 0 0 0
0 0 0 -0 -0 0 0 0 0 0 0 0 0 0 0 0 0 0 0 0 0 0 0 0 0 0 0 0 0 0 0 0 0 0 0 0 0 0 0 0 0 -0 -0 -0
0 0 0 0 0 0 0 0 0 0 0 1 1 0 0 0 0 0 0 0 0 0 0 0 0 0 0 0 0 0 0 0 0 0 0 0 0 0 0 0 -0 -0 -0 -0
-0 0 0 0 0 0 0 0 0 1 0 0 0 0 1 1 0 0 0 0 0 0 0 0 0 0 0 0 0 0 0 0 0 0 0 0 0 0 0 0 -0 -0 -0 -0
0 0 0 0 0 0 0 0 0 0 0 0 0 0 0 0 0 0 0 0 0 0 0 0 0 0 0 0 0 0 0 0 0 0 0 0 0 0 0 0 0 -0 -0 -0
0 0 0 0 0 0 0 0 0 0 0 0 0 0 0 0 0 0 0 0 0 0 0 0 0 0 0 0 0 0 0 0 0 0 0 0 0 0 0 0 0 0 0 0
0 0 0 0 0 0 0 0 0 0 0 0 0 0 0 0 1 0 0 0 0 0 0 0 0 0 0 0 0 0 0 0 0 0 0 0 0 0 0 0 0 0 0 0
0 0 0 0 0 0 0 0 0 0 0 0 0 0 1 1 0 0 0 0 0 0 0 0 -0 -0 -0 0 0 0 0 0 0 0 0 0 0 0 0 0 -0 -0 0 0
0 0 0 0 0 0 0 0 0 0 0 0 0 1 1 1 0 0 0 0 0 0 0 0 -0 -0 -0 -0 -0 0 0 0 0 0 0 0 -0 -0 -0 -0 -0 -0 0 0
0 0 0 0 0 0 0 0 0 1 1 1 1 1 1 1 0 0 0 0 0 0 0 0 -0 -0 -0 -0 -0 -0 -0 -0 0 -0 -0 -0 -0 0 -0 0 0 0 0 0
0 -0 0 0 0 0 0 0 0 0 0 0 0 0 0 0 0 0 0 0 0 0 0 0 -0 -0 -0 -0 -0 -0 0 -0 0 -0 -0 -0 0 0 0 0 0 0 0 0
0 0 0 0 0 -0 -0 -0 0 0 0 0 -0 0 0 0 0 0 0 0 0 0 0 0 -0 -0 -0 -0 -0 0 0 0 0 0 0 0 -0 0 0 0 0 0 0 -0
Wind_Speed_500mb
14 19 22 3 27 36 16 15 10 16 18 17 20 19 41 59 45 40 35 30 28 28 22 20 13 22 23 28 35 38 44 57 62 59 58 48 43 36 41 45 44 43 45 45
4 21 17 14 44 32 4 6 7 19 17 29 40 30 50 57 56 49 40 32 24 23 13 9 17 15 10 18 18 35 36 60 62 50 46 52 50 49 46 49 52 53 55 54
10 11 12 9 14 13 29 5 6 17 15 18 16 20 34 45 51 44 42 44 34 20 10 5 3 6 19 21 9 6 19 29 45 40 71 51 51 46 51 54 56 54 54 56
8 9 6 15 20 17 20 9 13 25 20 26 31 38 37 31 29 28 36 32 26 21 15 4 5 2 3 9 9 12 11 7 12 23 36 62 61 46 58 57 54 55 59 59
2 7 9 14 24 26 18 5 7 14 24 41 45 42 32 25 21 36 34 29 25 25 18 13 17 6 2 8 9 10 11 12 18 24 34 34 42 51 53 52 53 58 59 58
5 5 9 13 6 6 12 4 11 10 15 31 48 10 7 42 38 32 22 18 12 7 10 13 14 9 11 14 17 17 26 26 23 25 31 40 42 44 43 43 46 48 52 55
17 6 15 13 21 22 12 11 8 25 54 42 12 30 50 47 41 36 29 18 12 14 14 15 11 12 14 15 18 21 23 27 28 28 30 33 41 41 43 40 40 46 49 51
7 7 12 24 20 14 12 18 33 46 57 65 68 57 47 38 29 22 21 13 8 5 13 22 20 11 14 18 19 33 28 36 31 31 36 36 35 38 38 41 47 54 49 48
17 15 21 9 55 34 35 31 22 56 60 69 61 51 46 46 39 23 12 7 9 13 13 7 19 26 27 26 28 28 31 33 25 29 34 33 28 30 37 40 43 43 43 47
7 8 13 39 59 53 40 39 30 52 67 66 60 56 54 43 37 30 17 9 8 14 21 24 24 19 25 24 27 31 38 29 25 27 29 27 32 35 36 36 37 37 37 36
7 13 4 24 39 32 23 40 40 35 62 56 49 54 59 48 35 26 18 11 16 22 22 19 25 26 27 28 32 38 36 26 31 25 28 30 34 36 34 33 33 32 32 33
7 28 11 14 23 31 38 49 45 43 44 44 49 56 48 42 34 25 11 11 16 13 18 21 15 17 30 37 43 44 27 24 22 20 24 33 36 33 34 35 37 37 37 32
14 64 15 9 33 33 22 47 42 46 52 44 47 51 44 40 27 15 6 7 16 22 15 18 24 27 30 36 33 26 30 32 30 29 31 31 31 29 32 34 33 30 27 24
35 61 25 11 12 36 44 57 46 44 47 49 49 43 39 31 19 11 11 12 15 14 13 22 22 22 25 27 29 29 31 22 24 24 31 26 26 29 26 19 14 11 8 12
38 47 34 12 12 22 78 58 56 51 57 57 52 47 37 25 19 24 23 15 5 14 22 27 28 25 26 27 27 19 21 18 18 27 24 21 21 12 11 20 27 32 35 35
40 54 26 6 32 55 58 51 52 53 64 65 58 50 40 29 30 22 21 18 15 23 27 27 27 24 18 19 20 14 11 16 28 28 20 19 25 38 49 50 54 57 60 61
58 48 57 91 85 31 9 42 52 49 62 64 58 50 43 33 23 24 22 21 20 19 12 9 10 16 8 19 18 14 12 23 26 32 35 39 48 49 48 50 52 53 53 44
56 49 73 57 31 16 12 10 22 43 59 57 54 52 44 37 33 24 26 19 18 15 18 22 18 21 23 21 26 19 21 32 35 44 43 43 44 42 44 44 43 50 51 50
47 48 53 33 29 18 7 15 28 33 42 50 48 11 45 38 34 29 26 16 12 13 21 30 37 31 26 25 25 23 26 32 46 54 52 48 46 43 39 39 47 48 44 41
48 35 31 33 31 19 12 7 14 21 30 26 23 15 10 21 32 28 23 21 17 21 27 32 26 23 22 16 24 27 27 34 38 57 64 61 58 49 38 37 34 35 33 29
38 33 21 12 16 13 7 12 20 23 36 33 39 59 48 38 35 30 28 27 16 21 22 11 16 18 11 8 20 22 26 40 44 48 53 64 51 56 50 44 35 22 22 21
33 35 28 12 16 18 16 13 18 24 38 42 58 43 53 47 44 33 30 29 15 19 8 6 10 10 7 12 26 24 30 48 54 58 65 65 59 60 52 36 30 26 35 42
25 30 21 14 18 10 14 7 21 29 38 38 50 54 56 59 51 48 40 33 21 13 21 23 31 40 40 43 45 47 50 57 67 69 68 61 51 50 40 31 26 22 23 26
34 23 7 10 12 21 27 23 26 42 43 40 41 47 53 49 44 37 38 28 17 21 35 39 40 44 49 42 40 43 52 50 51 51 49 40 35 29 25 26 27 26 26 22
23 15 8 8 7 3 8 21 22 19 31 31 37 44 49 49 42 48 39 33 25 36 45 39 34 35 32 27 25 23 32 40 48 46 35 30 38 24 28 28 31 33 32 31
30 20 17 13 16 15 27 24 9 12 15 18 25 31 31 33 34 43 39 40 34 45 42 42 39 36 33 37 31 25 28 29 30 36 38 36 30 27 22 21 24 30 28 26
8 9 15 10 6 17 19 22 10 13 8 4 45 38 36 52 27 45 47 33 38 48 45 46 42 39 36 35 32 30 27 23 25 26 23 28 32 44 35 40 34 29 27 28
Wind_Direction_500mb
128 177 173 110 324 307 244 179 147 214 148 116 250 142 147 149 154 155 154 150 148 164 170 169 154 170 221 242 257 234 233 244 225 227 224 235 236 235 235 229 243 241 246 248
306 114 150 155 241 278 10 357 13 137 150 201 171 171 143 159 159 160 172 163 157 155 167 169 194 197 176 236 240 215 238 217 234 217 218 220 230 231 233 235 233 235 243 243
253 160 82 4 269 322 304 201 235 138 202 170 148 160 174 167 164 171 175 164 162 159 186 218 275 243 235 233 237 114 206 260 222 275 236 246 257 230 242 245 248 246 245 248
221 120 125 229 287 268 286 68 76 128 150 146 133 127 147 132 148 160 142 153 159 163 165 242 242 196 319 265 229 232 252 279 260 214 210 248 238 240 243 246 249 255 255 254
167 237 238 212 223 219 225 167 93 124 130 133 132 128 132 150 145 139 135 129 117 138 150 141 114 172 218 278 302 282 279 268 266 241 247 252 256 247 242 242 248 249 253 255
62 32 269 185 75 231 172 210 125 132 130 138 137 114 212 142 138 139 144 141 151 228 257 275 296 285 236 251 272 269 276 273 262 252 250 245 248 249 252 254 257 257 257 254
243 174 283 278 156 143 119 201 322 181 128 121 108 131 125 132 127 130 135 149 197 233 252 277 272 252 255 282 290 300 291 286 265 260 267 270 259 255 258 260 260 262 262 263
163 172 257 302 173 139 196 110 93 123 134 125 128 133 136 133 132 137 138 140 159 223 289 260 261 256 257 264 277 294 297 306 275 269 272 274 260 259 264 268 266 262 263 265
175 199 212 242 303 154 151 125 110 137 140 139 139 141 149 148 145 145 157 199 250 276 289 295 275 281 280 265 285 289 291 299 276 278 270 272 264 261 271 270 264 264 265 268
95 266 144 195 251 185 148 146 137 152 148 148 155 162 151 147 145 145 149 166 225 270 277 279 289 281 265 271 279 290 301 285 282 276 267 261 260 265 271 266 265 266 272 277
208 242 38 294 297 138 138 155 159 151 161 160 161 153 150 146 146 151 165 206 259 274 278 280 279 288 287 286 290 296 300 276 279 269 256 257 262 270 273 270 267 265 264 267
308 340 126 268 272 247 162 157 167 168 155 155 149 153 150 146 153 163 181 277 299 302 264 259 255 288 292 290 293 291 281 292 267 248 260 276 275 272 269 271 271 270 267 265
288 328 301 32 209 228 176 156 153 160 156 147 150 149 153 152 163 173 250 270 271 281 282 269 264 270 282 289 295 286 292 291 254 276 274 277 265 269 274 271 269 267 258 244
331 351 358 47 178 211 202 177 165 164 166 161 155 161 165 168 178 214 216 253 270 269 257 283 288 279 280 284 287 280 292 276 265 259 244 256 258 272 271 266 261 247 185 205
286 336 335 340 327 219 266 175 166 167 167 166 165 163 167 171 183 188 211 244 240 238 251 263 279 280 275 289 294 284 283 269 237 228 239 247 257 234 157 140 142 134 124 118
270 293 324 330 257 250 247 170 171 168 174 170 168 165 158 167 175 193 220 247 264 280 265 271 282 285 263 279 290 274 278 237 209 215 214 193 157 136 134 131 125 121 120 119
236 240 220 238 223 232 121 169 183 182 175 172 170 166 167 179 190 203 231 264 302 322 316 321 343 357 278 264 272 260 260 206 204 199 179 158 147 139 135 131 128 126 126 122
235 216 229 265 289 311 249 226 169 157 158 165 172 174 176 180 190 209 220 254 296 307 304 301 302 308 306 264 249 252 233 206 197 175 171 168 161 147 142 137 134 129 130 126
236 247 241 262 276 275 261 178 155 159 149 152 157 211 170 176 197 207 228 254 273 275 277 284 294 298 289 268 241 218 220 210 203 185 181 173 168 150 142 146 143 141 142 142
238 244 242 247 245 257 241 182 164 183 194 193 155 58 107 213 204 211 231 237 256 273 290 298 303 300 297 244 208 207 215 220 210 196 190 175 173 165 161 153 147 156 155 144
233 234 220 238 171 140 151 175 162 170 188 200 197 202 216 208 221 227 222 236 249 282 301 305 316 317 353 203 196 202 209 210 196 197 190 181 169 164 161 167 160 176 198 181
215 221 233 176 173 131 117 166 191 189 199 204 217 220 199 199 209 214 232 251 261 289 250 141 64 60 118 204 199 193 196 186 177 167 152 151 156 143 145 147 157 141 126 150
197 207 221 199 205 212 209 170 194 172 183 194 193 193 196 203 210 209 206 214 231 245 174 142 110 100 104 109 112 128 141 139 132 130 130 136 135 138 142 129 156 193 192 178
72 91 125 219 246 237 229 210 180 178 183 193 202 211 214 214 227 233 221 214 202 187 168 145 127 119 114 104 113 125 124 124 128 129 129 126 144 163 193 188 190 191 189 195
58 62 62 65 55 75 168 184 201 198 206 213 213 214 221 216 221 222 232 203 181 167 166 162 156 150 146 141 140 147 127 127 133 135 137 130 171 147 154 146 156 162 176 189
68 59 51 49 32 354 242 218 322 249 314 214 218 226 225 215 250 240 222 196 186 178 180 180 174 169 163 157 160 160 153 154 177 176 170 168 158 159 177 188 207 208 206 206
52 49 8 357 106 31 43 37 41 252 251 302 220 269 290 245 289 219 186 184 201 195 195 199 189 188 182 179 181 188 197 208 218 207 206 199 185 194 203 198 197 202 202 211
Wind_Speed_850mb
14 19 22 3 27 36 16 15 10 16 18 17 20 19 41 59 45 40 35 30 28 28 22 20 13 22 23 28 35 38 44 57 62 59 58 48 43 36 41 45 44 43 45 45
4 21 17 14 44 32 4 6 7 19 17 29 40 30 50 57 56 49 40 32 24 23 13 9 17 15 10 18 18 35 36 60 62 50 46 52 50 49 46 49 52 53 55 54
10 11 12 9 14 13 29 5 6 17 15 18 16 20 34 45 51 44 42 44 34 20 10 5 3 6 19 21 9 6 19 29 45 40 71 51 51 46 51 54 56 54 54 56
8 9 6 15 20 17 20 9 13 25 20 26 31 38 37 31 29 28 36 32 26 21 15 4 5 2 3 9 9 12 11 7 12 23 36 62 61 46 58 57 54 55 59 59
2 7 9 14 24 26 18 5 7 14 24 41 45 42 32 25 21 36 34 29 25 25 18 13 17 6 2 8 9 10 11 12 18 24 34 34 42 51 53 52 53 58 59 58
5 5 9 13 6 6 12 4 11 10 15 31 48 10 7 42 38 32 22 18 12 7 10 13 14 9 11 14 17 17 26 26 23 25 31 40 42 44 43 43 46 48 52 55
17 6 15 13 21 22 12 11 8 25 54 42 12 30 50 47 41 36 29 18 12 14 14 15 11 12 14 15 18 21 23 27 28 28 30 33 41 41 43 40 40 46 49 51
7 7 12 24 20 14 12 18 33 46 57 65 68 57 47 38 29 22 21 13 8 5 13 22 20 11 14 18 19 33 28 36 31 31 36 36 35 38 38 41 47 54 49 48
17 15 21 9 55 34 35 31 22 56 60 69 61 51 46 46 39 23 12 7 9 13 13 7 19 26 27 26 28 28 31 33 25 29 34 33 28 30 37 40 43 43 43 47
7 8 13 39 59 53 40 39 30 52 67 66 60 56 54 43 37 30 17 9 8 14 21 24 24 19 25 24 27 31 38 29 25 27 29 27 32 35 36 36 37 37 37 36
7 13 4 24 39 32 23 40 40 35 62 56 49 54 59 48 35 26 18 11 16 22 22 19 25 26 27 28 32 38 36 26 31 25 28 30 34 36 34 33 33 32 32 33
7 28 11 14 23 31 38 49 45 43 44 44 49 56 48 42 34 25 11 11 16 13 18 21 15 17 30 37 43 44 27 24 22 20 24 33 36 33 34 35 37 37 37 32
14 64 15 9 33 33 22 47 42 46 52 44 47 51 44 40 27 15 6 7 16 22 15 18 24 27 30 36 33 26 30 32 30 29 31 31 31 29 32 34 33 30 27 24
35 61 25 11 12 36 44 57 46 44 47 49 49 43 39 31 19 11 11 12 15 14 13 22 22 22 25 27 29 29 31 22 24 24 31 26 26 29 26 19 14 11 8 12
38 47 34 12 12 22 78 58 56 51 57 57 52 47 37 25 19 24 23 15 5 14 22 27 28 25 26 27 27 19 21 18 18 27 24 21 21 12 11 20 27 32 35 35
40 54 26 6 32 55 58 51 52 53 64 65 58 50 40 29 30 22 21 18 15 23 27 27 27 24 18 19 20 14 11 16 28 28 20 19 25 38 49 50 54 57 60 61
58 48 57 91 85 31 9 42 52 49 62 64 58 50 43 33 23 24 22 21 20 19 12 9 10 16 8 19 18 14 12 23 26 32 35 39 48 49 48 50 52 53 53 44
56 49 73 57 31 16 12 10 22 43 59 57 54 52 44 37 33 24 26 19 18 15 18 22 18 21 23 21 26 19 21 32 35 44 43 43 44 42 44 44 43 50 51 50
47 48 53 33 29 18 7 15 28 33 42 50 48 11 45 38 34 29 26 16 12 13 21 30 37 31 26 25 25 23 26 32 46 54 52 48 46 43 39 39 47 48 44 41
48 35 31 33 31 19 12 7 14 21 30 26 23 15 10 21 32 28 23 21 17 21 27 32 26 23 22 16 24 27 27 34 38 57 64 61 58 49 38 37 34 35 33 29
38 33 21 12 16 13 7 12 20 23 36 33 39 59 48 38 35 30 28 27 16 21 22 11 16 18 11 8 20 22 26 40 44 48 53 64 51 56 50 44 35 22 22 21
33 35 28 12 16 18 16 13 18 24 38 42 58 43 53 47 44 33 30 29 15 19 8 6 10 10 7 12 26 24 30 48 54 58 65 65 59 60 52 36 30 26 35 42
25 30 21 14 18 10 14 7 21 29 38 38 50 54 56 59 51 48 40 33 21 13 21 23 31 40 40 43 45 47 50 57 67 69 68 61 51 50 40 31 26 22 23 26
34 23 7 10 12 21 27 23 26 42 43 40 41 47 53 49 44 37 38 28 17 21 35 39 40 44 49 42 40 43 52 50 51 51 49 40 35 29 25 26 27 26 26 22
23 15 8 8 7 3 8 21 22 19 31 31 37 44 49 49 42 48 39 33 25 36 45 39 34 35 32 27 25 23 32 40 48 46 35 30 38 24 28 28 31 33 32 31
30 20 17 13 16 15 27 24 9 12 15 18 25 31 31 33 34 43 39 40 34 45 42 42 39 36 33 37 31 25 28 29 30 36 38 36 30 27 22 21 24 30 28 26
8 9 15 10 6 17 19 22 10 13 8 4 45 38 36 52 27 45 47 33 38 48 45 46 42 39 36 35 32 30 27 23 25 26 23 28 32 44 35 40 34 29 27 28
Wind_Direction_850mb
128 177 173 110 324 307 244 179 147 214 148 116 250 142 147 149 154 155 154 150 148 164 170 169 154 170 221 242 257 234 233 244 225 227 224 235 236 235 235 229 243 241 246 248
306 114 150 155 241 278 10 357 13 137 150 201 171 171 143 159 159 160 172 163 157 155 167 169 194 197 176 236 240 215 238 217 234 217 218 220 230 231 233 235 233 235 243 243
253 160 82 4 269 322 304 201 235 138 202 170 148 160 174 167 164 171 175 164 162 159 186 218 275 243 235 233 237 114 206 260 222 275 236 246 257 230 242 245 248 246 245 248
221 120 125 229 287 268 286 68 76 128 150 146 133 127 147 132 148 160 142 153 159 163 165 242 242 196 319 265 229 232 252 279 260 214 210 248 238 240 243 246 249 255 255 254
167 237 238 212 223 219 225 167 93 124 130 133 132 128 132 150 145 139 135 129 117 138 150 141 114 172 218 278 302 282 279 268 266 241 247 252 256 247 242 242 248 249 253 255
62 32 269 185 75 231 172 210 125 132 130 138 137 114 212 142 138 139 144 141 151 228 257 275 296 285 236 251 272 269 276 273 262 252 250 245 248 249 252 254 257 257 257 254
243 174 283 278 156 143 119 201 322 181 128 121 108 131 125 132 127 130 135 149 197 233 252 277 272 252 255 282 290 300 291 286 265 260 267 270 259 255 258 260 260 262 262 263
163 172 257 302 173 139 196 110 93 123 134 125 128 133 136 133 132 137 138 140 159 223 289 260 261 256 257 264 277 294 297 306 275 269 272 274 260 259 264 268 266 262 263 265
175 199 212 242 303 154 151 125 110 137 140 139 139 141 149 148 145 145 157 199 250 276 289 295 275 281 280 265 285 289 291 299 276 278 270 272 264 261 271 270 264 264 265 268
95 266 144 195 251 185 148 146 137 152 148 148 155 162 151 147 145 145 149 166 225 270 277 279 289 281 265 271 279 290 301 285 282 276 267 261 260 265 271 266 265 266 272 277
208 242 38 294 297 138 138 155 159 151 161 160 161 153 150 146 146 151 165 206 259 274 278 280 279 288 287 286 290 296 300 276 279 269 256 257 262 270 273 270 267 265 264 267
308 340 126 268 272 247 162 157 167 168 155 155 149 153 150 146 153 163 181 277 299 302 264 259 255 288 292 290 293 291 281 292 267 248 260 276 275 272 269 271 271 270 267 265
288 328 301 32 209 228 176 156 153 160 156 147 150 149 153 152 163 173 250 270 271 281 282 269 264 270 282 289 295 286 292 291 254 276 274 277 265 269 274 271 269 267 258 244
331 351 358 47 178 211 202 177 165 164 166 161 155 161 165 168 178 214 216 253 270 269 257 283 288 279 280 284 287 280 292 276 265 259 244 256 258 272 271 266 261 247 185 205
286 336 335 340 327 219 266 175 166 167 167 166 165 163 167 171 183 188 211 244 240 238 251 263 279 280 275 289 294 284 283 269 237 228 239 247 257 234 157 140 142 134 124 118
270 293 324 330 257 250 247 170 171 168 174 170 168 165 158 167 175 193 220 247 264 280 265 271 282 285 263 279 290 274 278 237 209 215 214 193 157 136 134 131 125 121 120 119
236 240 220 238 223 232 121 169 183 182 175 172 170 166 167 179 190 203 231 264 302 322 316 321 343 357 278 264 272 260 260 206 204 199 179 158 147 139 135 131 128 126 126 122
235 216 229 265 289 311 249 226 169 157 158 165 172 174 176 180 190 209 220 254 296 307 304 301 302 308 306 264 249 252 233 206 197 175 171 168 161 147 142 137 134 129 130 126
236 247 241 262 276 275 261 178 155 159 149 152 157 211 170 176 197 207 228 254 273 275 277 284 294 298 289 268 241 218 220 210 203 185 181 173 168 150 142 146 143 141 142 142
238 244 242 247 245 257 241 182 164 183 194 193 155 58 107 213 204 211 231 237 256 273 290 298 303 300 297 244 208 207 215 220 210 196 190 175 173 165 161 153 147 156 155 144
233 234 220 238 171 140 151 175 162 170 188 200 197 202 216 208 221 227 222 236 249 282 301 305 316 317 353 203 196 202 209 210 196 197 190 181 169 164 161 167 160 176 198 181
215 221 233 176 173 131 117 166 191 189 199 204 217 220 199 199 209 214 232 251 261 289 250 141 64 60 118 204 199 193 196 186 177 167 152 151 156 143 145 147 157 141 126 150
197 207 221 199 205 212 209 170 194 172 183 194 193 193 196 203 210 209 206 214 231 245 174 142 110 100 104 109 112 128 141 139 132 130 130 136 135 138 142 129 156 193 192 178
72 91 125 219 246 237 229 210 180 178 183 193 202 211 214 214 227 233 221 214 202 187 168 145 127 119 114 104 113 125 124 124 128 129 129 126 144 163 193 188 190 191 189 195
58 62 62 65 55 75 168 184 201 198 206 213 213 214 221 216 221 222 232 203 181 167 166 162 156 150 146 141 140 147 127 127 133 135 137 130 171 147 154 146 156 162 176 189
68 59 51 49 32 354 242 218 322 249 314 214 218 226 225 215 250 240 222 196 186 178 180 180 174 169 163 157 160 160 153 154 177 176 170 168 158 159 177 188 207 208 206 206
52 49 8 357 106 31 43 37 41 252 251 302 220 269 290 245 289 219 186 184 201 195 195 199 189 188 182 179 181 188 197 208 218 207 206 199 185 194 203 198 197 202 202 211